CAPE
0 0 0 0 0 0 0 0 0 0 685 733 990 1034 1009 931 603 194 434 465 732 665 663 604 620 831 966 939 753 611 453 332 133 106 112 80 121 175 184 195 198 143 70 0 0 0 0 0 60
0 0 0 0 0 0 0 0 0 126 475 371 488 938 1011 1327 1057 953 735 771 779 768 622 435 670 920 989 808 664 508 310 165 189 98 69 115 98 155 259 278 232 200 97 1 0 0 0 0 85
0 0 0 0 0 0 0 0 509 369 118 56 6 149 838 1176 971 806 696 700 724 636 483 568 794 877 976 706 497 410 401 332 226 151 128 117 148 112 192 325 288 219 22 25 11 7 10 81 62
0 0 0 0 0 0 0 0 556 283 246 21 0 153 735 938 960 618 481 556 401 408 414 458 858 906 876 712 621 545 410 261 194 238 309 274 269 134 297 330 279 59 32 41 48 25 167 171 38
0 0 0 0 0 0 7 250 187 365 145 10 55 744 845 967 671 460 569 519 390 183 208 358 665 672 582 725 604 474 382 281 263 359 414 462 456 296 408 323 306 226 79 64 48 153 245 170 23
0 0 0 0 0 0 311 128 294 265 75 26 507 545 853 1009 740 660 365 107 11 10 3 128 291 257 224 467 475 359 339 298 340 411 447 486 462 433 425 409 404 370 307 256 160 86 186 253 67
0 0 0 0 0 61 215 53 231 121 70 58 250 546 677 674 471 274 43 16 4 3 3 6 6 4 20 239 270 224 267 279 366 398 404 400 368 365 379 404 372 298 179 114 73 90 144 277 59
0 0 0 0 26 99 174 128 22 66 37 0 0 451 425 675 213 65 4 4 0 2 3 1 1 50 133 173 166 154 180 229 287 351 307 279 308 351 322 289 251 109 41 61 79 150 48 297 3
0 0 0 0 184 96 120 133 30 155 230 462 414 363 442 418 50 0 10 18 8 5 4 3 0 0 47 120 172 199 199 207 243 233 225 128 86 64 15 87 33 10 1 22 94 18 0 0 0
0 0 0 0 35 102 65 14 210 189 362 276 268 470 426 255 66 25 27 3 6 12 8 0 0 2 165 310 173 77 73 72 49 37 15 2 0 2 0 40 33 30 17 17 0 0 0 0 0
0 0 0 0 37 50 10 15 12 53 56 106 516 284 208 205 70 69 21 0 4 5 0 11 27 95 203 130 36 5 3 0 0 0 0 0 0 0 0 0 0 0 0 0 0 0 0 0 0
0 0 0 0 1 13 22 28 73 5 10 199 152 95 60 49 24 102 63 1 0 1 19 12 32 153 145 35 9 3 0 0 0 0 0 0 0 0 0 0 0 0 0 0 0 0 0 0 0
0 0 0 0 22 8 26 12 0 0 192 158 113 91 73 23 37 77 73 52 0 2 15 4 0 194 106 0 0 0 0 9 29 1 0 0 0 0 0 0 0 0 0 0 0 0 0 0 0
0 0 0 0 1 23 0 0 3 0 426 140 280 84 17 32 25 36 54 39 90 75 18 0 9 210 12 0 0 0 8 43 43 14 0 0 0 0 0 0 0 0 0 0 0 0 0 0 0
0 0 0 0 2 2 0 0 3 2 308 546 519 128 0 23 39 25 47 59 120 191 170 148 132 52 0 0 0 0 32 4 0 0 0 0 0 0 0 0 0 0 0 0 0 0 0 0 0
0 0 11 0 0 0 3 77 37 28 193 294 429 292 71 61 24 54 32 156 254 304 184 2 137 0 0 0 0 0 0 0 0 0 0 0 0 0 0 0 0 0 0 0 0 0 0 0 0
0 0 0 0 0 0 2 158 46 31 166 259 157 519 332 127 28 40 84 336 369 273 3 5 2 0 0 0 0 0 0 0 0 0 0 0 0 0 0 0 0 0 0 0 0 0 0 0 0
0 0 0 0 0 0 7 185 28 30 16 97 127 369 440 229 101 150 264 356 226 83 0 13 0 0 0 0 0 0 0 0 0 0 0 0 0 0 0 0 0 0 0 0 0 0 0 0 0
0 0 0 0 0 0 0 96 58 25 20 37 26 154 306 434 375 380 422 60 129 0 48 0 0 0 0 0 0 0 0 0 0 0 0 0 0 0 0 0 0 0 0 0 0 0 0 0 0
0 0 0 0 0 0 0 4 0 0 44 34 37 28 106 332 171 401 179 33 0 0 76 0 0 0 0 0 0 0 0 0 0 0 0 0 0 0 0 0 0 0 0 0 0 0 0 0 0
0 0 0 0 0 0 0 0 24 0 0 0 23 60 15 111 43 277 166 17 0 0 82 0 0 0 0 0 0 0 0 0 0 0 0 0 0 0 0 0 0 0 0 0 0 0 0 0 0
0 0 0 0 0 0 0 1 0 0 10 0 1 0 7 7 10 237 217 77 9 4 100 87 0 0 0 0 0 0 0 0 0 0 0 0 0 0 0 0 0 0 0 0 0 0 0 0 0
0 0 0 0 0 0 0 0 0 0 2 0 0 0 0 0 0 63 137 104 31 14 77 119 0 0 0 0 0 0 0 0 0 0 0 0 0 0 0 0 0 0 0 0 0 0 0 0 0
0 0 0 0 0 0 0 0 0 0 0 1 0 0 0 0 0 0 79 43 21 21 80 66 0 0 0 0 0 0 0 0 0 0 0 0 0 0 0 0 0 0 0 0 0 0 0 0 0
0 0 0 0 0 0 0 0 0 0 0 0 0 0 0 0 0 0 14 11 16 36 25 3 0 0 0 0 0 0 0 0 0 0 0 0 0 0 0 0 0 0 0 0 0 0 0 0 0
0 0 0 0 0 0 0 0 0 0 0 0 0 0 0 0 0 0 5 28 20 59 89 36 0 0 0 0 0 0 0 0 0 0 0 0 0 0 0 0 0 0 0 0 0 0 0 0 0
0 0 0 0 0 0 0 0 0 0 0 0 0 0 0 0 0 0 0 55 62 63 0 0 0 0 0 0 0 0 0 0 0 0 0 0 0 0 0 0 0 0 0 0 0 0 0 0 0
0 0 0 0 0 0 0 0 0 0 0 0 0 0 0 0 5 45 104 131 146 63 0 0 0 0 0 0 0 0 0 0 0 0 0 0 0 0 0 0 0 0 0 0 0 0 0 0 0
0 0 0 0 0 0 0 0 0 0 0 0 0 0 0 0 47 68 104 66 30 0 0 0 0 0 0 0 0 0 0 0 0 0 0 0 0 0 0 0 0 0 0 0 0 0 0 0 0
0 0 0 0 0 0 0 0 0 0 0 0 0 0 0 0 6 80 61 0 0 0 0 0 0 0 0 0 0 0 0 0 0 0 0 0 0 0 0 0 0 0 0 0 0 0 0 0 0
CIN
0 0 0 0 0 0 0 0 0 0 -80 -145 -147 -136 -172 -161 -170 -163 -253 -196 -76 -30 -9 -16 -27 -14 -1 -0 -4 -0 -16 -63 -121 -143 -112 -145 -136 -101 -77 -72 -62 -67 -73 0 0 0 0 0 -111
0 0 0 0 0 0 0 0 0 -140 -155 -250 -239 -194 -184 -66 -96 -91 -118 -61 -28 -2 -2 -11 -11 -1 0 0 -9 -21 -51 -104 -99 -162 -164 -137 -151 -101 -58 -59 -67 -65 -75 -56 -30 0 0 0 -86
0 0 0 0 0 0 0 0 -125 -177 -319 -284 -288 -354 -170 -50 -55 -63 -50 -16 -8 -0 -0 -0 -1 -0 0 -0 -15 -33 -32 -32 -96 -94 -142 -154 -141 -137 -100 -60 -64 -65 -174 -134 -155 -183 -207 -100 -121
0 0 0 0 0 0 0 0 -70 -134 -175 -329 -8 -269 -141 -66 -19 -72 -82 -33 -35 -2 -1 -9 -0 -0 -0 -1 -11 -17 -23 -40 -104 -59 -52 -70 -91 -122 -70 -51 -55 -128 -167 -175 -168 -164 -57 -81 -170
0 0 0 0 0 0 -21 -214 -216 -159 -252 -383 -75 -108 -67 -36 -80 -91 -22 -4 -3 -40 -25 -14 -9 -11 -20 -6 -8 -11 -12 -49 -76 -35 -36 -40 -34 -56 -32 -49 -50 -67 -129 -156 -172 -115 -87 -91 -156
0 0 0 0 0 0 -129 -259 -207 -172 -243 -261 -166 -132 -23 -7 -33 -18 -42 -58 -34 -41 -46 -48 -10 -12 -10 -6 -17 -30 -49 -65 -70 -67 -44 -34 -31 -30 -31 -48 -54 -54 -63 -74 -143 -171 -105 -65 -122
0 0 0 0 0 -23 -167 -298 -189 -219 -182 -163 -215 -99 -44 -6 -39 -31 -139 -126 0 0 0 0 0 -0 -12 -26 -39 -52 -59 -102 -68 -43 -36 -42 -55 -70 -59 -59 -60 -67 -101 -163 -167 -166 -102 -63 -109
0 0 0 0 -108 -96 -172 -197 -331 -206 -198 0 -21 -125 -40 -12 -82 -146 -64 0 0 -0 0 0 -1 0 -0 -25 -66 -109 -136 -99 -68 -60 -71 -119 -76 -58 -68 -65 -76 -141 -202 -170 -169 -118 -203 -76 -38
0 0 0 0 -107 -148 -264 -167 -270 -296 -240 -193 -184 -137 -44 -34 -122 0 -94 -77 0 0 -0 -0 -0 0 -26 -45 -56 -74 -77 -82 -83 -97 -113 -182 -202 -223 -221 -202 -217 -270 -58 -193 -135 -116 0 0 0
0 0 0 0 -162 -172 -212 -202 -97 -147 -163 -153 -139 -59 -33 -36 -88 -120 -80 -5 0 0 -0 0 0 -36 -37 -42 -100 -175 -190 -215 -268 -276 -118 -315 -151 -120 -0 -273 -275 -256 -227 -116 0 0 0 0 0
0 0 0 -20 -168 -227 -227 -176 -193 -179 -159 -189 -94 -60 -38 -23 -71 -79 -92 0 -0 0 -0 -97 -50 -78 -40 -67 -103 -188 -92 -51 0 0 0 0 0 0 0 0 0 0 0 0 0 0 0 0 0
0 0 0 0 -22 -251 -180 -259 -172 -109 -200 -197 -150 -135 -107 -72 -11 -53 -58 -35 0 -80 -150 -158 -111 -62 -78 -200 -339 -341 0 0 0 0 -30 0 0 0 0 0 0 0 0 0 0 0 0 0 0
0 0 0 0 -197 -224 -201 -121 0 0 -213 -176 -128 -118 -121 -49 -90 -87 -87 -146 -20 -201 -366 -209 0 -54 -88 0 0 0 0 -227 -208 -70 -8 0 0 0 0 0 0 0 0 0 0 0 0 0 0
0 0 0 0 -95 -148 0 0 -116 0 -90 -151 -103 -129 -197 -194 -201 -180 -154 -138 -113 -157 -198 0 -181 -71 -225 0 0 0 -182 -221 -253 -299 -8 0 0 0 0 0 0 0 0 0 0 0 0 0 0
0 0 0 0 -233 -169 0 0 -175 -84 -130 -79 -52 -144 0 -248 -240 -243 -207 -210 -185 -144 -166 -167 -177 -227 0 0 0 0 -213 -291 -14 0 0 0 0 0 0 0 0 0 0 0 0 0 0 0 0
0 0 -74 0 0 0 -48 -60 -215 -310 -151 -117 -95 -99 -189 -215 -268 -247 -230 -140 -159 -203 -136 -217 -141 0 0 0 0 0 0 0 0 0 0 0 0 0 0 0 0 0 0 0 0 0 0 0 0
0 0 0 0 0 0 -15 -77 -216 -301 -178 -150 -175 -90 -139 -188 -261 -273 -226 -129 -143 -145 -37 -129 -107 0 0 0 0 0 0 0 0 0 0 0 0 0 0 0 0 0 0 0 0 0 0 0 0
0 0 0 0 0 0 -61 -68 -294 -317 -282 -205 -206 -147 -149 -204 -280 -270 -213 -158 -202 -281 0 -340 0 0 0 0 0 0 0 0 0 0 0 0 0 0 0 0 0 0 0 0 0 0 0 0 0
0 0 0 0 0 0 -0 -94 -188 -296 -301 -264 -288 -248 -236 -236 -249 -215 -162 -299 -261 0 -338 -1 0 0 0 0 0 0 0 0 0 0 0 0 0 0 0 0 0 0 0 0 0 0 0 0 0
0 0 0 0 0 0 0 -119 -0 0 -259 -295 -299 -346 -301 -225 -292 -227 -284 -346 0 0 -303 0 0 0 0 0 0 0 0 0 0 0 0 0 0 0 0 0 0 0 0 0 0 0 0 0 0
0 0 0 0 0 0 0 0 -165 0 0 0 -308 -295 -352 -288 -388 -310 -352 -407 0 0 -341 -0 0 0 0 0 0 0 0 0 0 0 0 0 0 0 0 0 0 0 0 0 0 0 0 0 0
0 0 0 0 0 0 0 -15 0 0 -219 0 -70 -21 -362 -438 -124 -311 -357 -470 -422 -209 -329 -333 0 0 0 0 0 0 0 0 0 0 0 0 0 0 0 0 0 0 0 0 0 0 0 0 0
0 0 0 0 0 -12 0 0 0 0 -169 -2 0 0 -122 0 0 -423 -400 -422 -486 -425 -321 -290 0 0 0 0 0 0 0 0 0 0 0 0 0 0 0 0 0 0 0 0 0 0 0 0 0
0 0 0 0 0 0 0 0 0 0 0 -140 0 0 0 0 0 0 -432 -417 -356 -255 -333 -322 0 0 0 0 0 0 0 0 0 0 0 0 0 0 0 0 0 0 0 0 0 0 0 0 0
0 0 0 0 0 0 0 0 0 0 0 0 0 0 0 0 0 0 -438 -466 -450 -426 -413 -389 0 0 0 0 0 0 0 0 0 0 0 0 0 0 0 0 0 0 0 0 0 0 0 0 0
0 0 0 0 0 0 0 0 0 0 0 0 0 0 0 0 0 0 -353 -465 -486 -426 -400 -345 0 0 0 0 0 0 0 0 0 0 0 0 0 0 0 0 0 0 0 0 0 0 0 0 0
0 0 0 0 0 0 0 0 0 0 0 0 0 0 0 0 0 0 0 -448 -451 -409 0 0 0 0 0 0 0 0 0 0 0 0 0 0 0 0 0 0 0 0 0 0 0 0 0 0 0
0 0 0 0 0 0 0 0 0 0 -25 0 0 0 0 0 -255 -538 -477 -435 -422 -432 0 0 0 0 0 0 0 0 0 0 0 0 0 0 0 0 0 0 0 0 0 0 0 0 0 0 0
0 0 0 0 0 0 0 0 0 0 0 0 0 0 0 0 -574 -549 -495 -532 -449 0 0 0 0 0 0 0 0 0 0 0 0 0 0 0 0 0 0 0 0 0 0 0 0 0 0 0 0
0 0 0 0 0 0 0 0 0 0 0 0 0 0 0 0 -572 -502 -483 0 0 0 0 0 0 0 0 0 0 0 0 0 0 0 0 0 0 0 0 0 0 0 0 0 0 0 0 0 0
Wind_Speed
4 3 1 5 5 6 4 7 5 7 4 6 1 7 8 3 2 2 5 5 14 16 12 14 19 21 20 20 21 17 18 21 21 20 19 19 19 19 18 18 17 18 19 21 21 22 21 22 21
3 2 5 3 6 3 6 5 5 4 5 2 6 4 8 5 2 6 7 9 14 11 11 12 18 19 19 19 21 21 19 20 19 19 18 19 19 19 18 17 17 17 18 19 19 22 22 21 19
3 3 5 4 3 4 4 5 4 2 3 1 1 5 4 4 5 4 10 12 12 9 10 13 18 19 20 19 19 20 18 17 18 16 18 20 19 19 19 17 16 16 18 17 18 20 20 17 17
3 5 5 4 4 8 6 7 5 2 2 8 1 6 5 9 2 6 11 12 11 8 9 12 18 20 20 19 18 18 17 16 17 15 17 17 19 18 16 16 15 17 15 15 15 16 17 16 15
4 3 3 1 5 6 2 5 1 4 4 5 1 3 5 4 14 12 10 9 8 4 3 11 17 20 21 20 18 16 15 15 16 15 15 16 16 16 14 14 13 13 13 12 11 11 13 15 15
5 4 4 2 5 5 3 4 2 2 4 0 6 5 3 6 12 12 13 15 17 12 13 7 14 15 16 18 16 14 13 14 15 14 15 16 14 14 13 12 10 10 10 8 9 9 11 13 13
7 4 4 3 5 3 2 3 3 1 1 3 5 5 3 8 13 14 15 17 19 18 15 12 12 17 12 12 12 12 12 12 12 11 12 13 13 12 11 10 9 9 9 9 9 9 10 11 13
6 4 0 4 4 5 2 3 7 3 4 2 2 6 4 5 13 13 16 19 19 15 15 15 9 11 1 2 9 9 10 10 10 11 11 12 11 10 9 7 6 7 10 10 9 10 12 12 15
3 4 3 5 4 6 2 2 0 5 7 5 6 4 12 14 14 14 12 14 15 12 15 13 13 13 3 5 4 7 8 9 10 10 10 7 4 5 6 6 6 8 9 7 9 12 12 13 12
5 4 7 7 2 4 1 2 6 5 6 6 11 14 14 15 11 13 10 10 15 14 13 12 13 15 8 5 4 4 4 3 3 5 5 4 4 3 4 5 7 8 11 14 14 13 12 9 5
4 5 6 6 5 3 3 5 4 9 4 6 16 13 10 12 7 9 7 7 14 15 10 10 9 7 5 1 3 1 3 3 3 5 4 5 3 3 3 3 4 4 7 4 6 6 5 7 5
2 8 6 6 4 4 5 4 2 3 2 17 16 18 12 11 7 7 7 7 10 10 11 10 6 4 5 3 3 3 3 3 3 4 5 4 3 4 4 3 4 4 4 6 5 4 5 7 6
3 6 4 8 7 5 6 5 5 5 13 18 16 16 15 17 17 8 8 8 11 11 12 11 7 4 4 4 3 3 4 4 4 4 5 4 4 4 4 4 5 4 4 4 4 5 5 6 6
5 4 4 3 7 6 6 4 5 5 14 16 18 15 15 16 11 7 9 10 9 9 10 8 7 6 6 5 6 4 3 3 4 4 5 5 4 5 4 4 4 5 4 4 5 4 5 4 4
4 2 4 2 5 4 7 4 6 7 13 17 14 14 11 9 9 13 12 12 13 9 9 7 6 7 7 6 5 4 4 3 4 4 5 6 5 6 5 5 4 4 4 6 4 4 5 5 3
3 5 4 0 5 1 5 3 3 10 13 11 12 15 13 12 14 9 9 9 9 7 6 6 7 7 7 6 4 4 4 4 4 4 4 6 6 6 5 5 5 4 4 4 4 3 3 4 4
6 3 3 1 4 6 1 2 5 10 7 9 10 15 14 11 9 8 9 9 9 8 7 7 7 8 7 6 4 4 5 4 3 4 4 6 6 6 6 5 4 5 4 4 3 3 3 2 2
3 3 2 5 4 5 6 6 8 11 7 12 9 8 12 14 17 13 13 9 8 7 7 8 7 8 7 5 5 4 4 3 3 4 4 6 5 6 6 5 5 4 4 3 3 3 2 2 2
5 1 3 4 6 4 7 8 13 11 6 8 7 10 14 17 17 16 14 10 9 6 8 8 9 6 7 5 4 3 4 3 3 3 6 6 6 6 6 5 5 4 4 3 3 2 3 4 2
1 4 5 5 3 6 7 3 1 7 8 10 14 13 16 15 13 16 14 12 12 12 12 10 11 10 7 6 3 3 4 2 2 2 3 5 6 6 6 6 5 5 4 5 4 3 2 3 4
4 1 3 4 3 6 7 4 3 2 2 4 9 13 12 17 17 17 17 16 12 13 14 14 15 14 9 7 6 4 5 4 2 1 2 2 5 6 6 6 6 6 4 4 3 3 4 3 4
5 2 4 3 2 4 3 3 6 6 10 6 11 9 14 15 12 13 15 16 16 15 15 15 15 14 10 10 8 12 8 7 4 4 3 4 6 6 6 6 6 5 4 5 3 2 2 3 2
9 5 4 1 3 5 2 4 7 6 11 15 15 15 13 12 14 17 19 18 15 13 14 12 12 12 10 11 12 9 5 2 3 4 7 6 5 6 6 6 6 6 4 4 5 4 4 2 3
2 2 7 5 3 3 3 5 5 7 20 22 17 15 16 11 12 12 14 12 12 9 9 9 11 13 9 11 12 13 11 8 8 5 5 4 3 4 5 6 6 5 5 4 4 4 4 3 3
4 5 3 3 4 5 2 2 9 9 10 13 14 15 12 13 13 11 16 14 14 13 12 11 12 14 12 10 9 11 11 11 11 9 5 6 4 2 4 4 4 3 3 4 3 4 4 4 3
3 6 6 4 3 4 3 5 8 6 7 8 9 9 9 10 13 16 18 16 15 15 13 13 11 8 8 9 9 8 11 8 7 7 7 4 4 5 4 5 4 3 3 4 5 2 2 3 3
1 2 3 7 3 3 4 7 11 7 2 3 5 6 8 9 11 15 15 17 15 14 15 16 13 10 8 8 9 12 12 12 10 9 8 5 6 6 7 6 7 5 5 4 5 3 3 4 4
4 5 2 3 3 3 4 4 6 7 6 6 5 8 7 5 7 9 13 15 14 14 12 10 12 16 16 14 12 10 11 10 10 10 10 10 9 8 8 6 6 6 5 5 5 4 3 3 2
0 2 4 5 5 6 2 7 8 7 4 7 6 8 8 8 9 11 13 12 13 10 12 13 11 12 12 12 12 13 10 9 9 9 9 9 8 7 7 6 6 6 5 4 5 4 3 3 3
4 5 6 6 4 2 4 8 5 8 5 6 9 5 8 8 10 12 12 11 12 14 12 16 13 13 14 11 9 10 10 10 10 10 11 9 9 7 8 6 5 5 4 3 6 6 6 6 6
Wind_Direction
77 94 45 37 59 64 254 261 282 312 8 328 45 91 109 65 86 217 103 90 131 149 146 138 135 131 127 123 117 113 114 116 118 114 114 114 113 110 109 104 99 93 89 83 81 75 67 57 54
126 112 38 70 82 75 268 260 261 238 172 173 51 48 44 67 42 96 105 144 137 141 132 141 135 130 125 123 123 124 123 121 120 122 122 115 116 115 111 108 103 97 90 85 81 77 67 59 52
138 54 77 78 111 203 257 272 254 302 34 85 103 51 59 49 83 103 110 114 111 131 135 141 131 127 126 126 126 125 123 127 122 126 122 120 120 121 115 111 105 100 89 80 75 76 74 62 61
106 15 35 82 240 248 223 248 235 344 58 34 21 56 77 359 142 98 113 118 110 113 135 141 131 132 130 128 124 124 127 128 122 127 121 125 123 123 115 108 103 98 87 73 64 62 71 65 57
43 57 73 318 265 254 284 327 301 41 81 356 320 55 62 37 91 106 102 81 73 89 134 142 138 140 136 125 120 124 129 126 124 128 123 122 122 117 106 104 104 98 93 83 66 61 71 76 66
54 99 62 241 261 282 55 358 354 50 138 352 70 83 65 92 87 89 84 79 60 38 52 67 98 99 110 110 117 125 127 131 131 128 131 125 116 110 112 113 113 109 93 86 73 58 66 84 79
118 97 203 252 277 273 255 272 96 328 350 54 96 85 62 71 96 106 100 88 93 89 75 50 63 80 54 91 107 118 138 121 120 123 117 119 123 125 131 137 124 115 111 87 75 61 58 91 92
101 87 209 259 269 253 246 160 153 117 67 51 46 141 136 122 115 116 115 111 109 107 100 109 75 74 100 313 119 107 102 112 119 121 135 135 135 139 122 113 114 100 76 75 69 60 56 69 80
132 63 252 249 210 265 135 169 245 80 74 38 10 58 122 127 129 128 118 111 108 106 122 136 123 111 242 282 117 114 122 124 133 132 145 124 106 105 115 129 103 75 74 78 84 80 74 70 71
121 146 233 225 217 241 150 257 136 77 88 63 90 96 116 132 145 138 130 115 119 125 127 134 152 166 207 222 96 104 120 106 116 128 119 98 114 132 112 75 68 78 88 83 86 83 76 70 65
181 209 217 253 231 187 135 347 36 111 91 166 135 126 122 134 136 114 124 119 138 144 151 188 186 179 189 177 137 151 119 145 146 142 146 147 119 92 81 65 64 71 74 67 63 57 57 63 62
244 238 192 259 210 143 134 119 76 140 181 136 138 142 147 124 122 143 147 135 144 166 174 181 199 185 182 151 143 167 141 150 165 177 153 137 122 105 91 86 82 77 65 76 70 75 72 64 60
211 272 259 202 168 97 111 83 90 41 119 124 136 151 158 138 174 174 164 157 158 178 179 189 190 169 186 155 156 155 184 181 184 145 123 118 112 113 103 90 86 78 75 77 76 73 73 67 62
239 279 247 176 148 146 121 101 103 59 133 134 151 168 178 159 168 152 166 170 182 179 184 189 195 175 166 166 170 181 166 130 119 117 129 133 119 121 112 108 91 74 67 68 74 73 69 60 59
278 40 50 15 154 123 133 57 75 144 151 153 159 175 182 166 171 181 184 181 182 193 189 188 183 173 171 177 156 157 144 124 118 127 131 128 133 122 115 106 85 87 87 95 80 64 63 54 49
48 38 50 131 156 94 79 316 105 163 165 167 158 180 195 195 197 189 190 189 188 190 180 171 176 164 156 150 141 133 133 131 131 121 129 129 120 118 104 97 89 107 100 93 80 75 71 58 60
358 162 158 158 220 135 123 162 196 172 183 169 176 175 188 204 203 205 201 197 182 180 169 158 152 150 142 129 126 113 116 116 125 124 120 125 124 120 109 106 127 123 103 84 95 61 108 97 50
287 350 71 153 183 167 181 165 164 181 198 190 181 172 171 182 203 201 202 194 186 171 160 146 150 140 132 114 102 70 96 105 120 118 120 132 125 123 118 119 111 99 96 83 77 100 69 115 99
263 101 156 191 194 112 212 150 164 181 172 181 183 185 186 189 197 195 196 183 177 157 157 154 142 145 137 139 134 123 148 139 102 130 141 132 136 137 121 104 111 104 96 106 80 107 64 41 35
14 344 350 307 224 144 174 151 219 183 185 190 190 195 191 191 186 191 187 179 181 177 172 159 162 163 171 162 152 128 132 103 124 125 142 140 129 128 114 118 110 94 96 69 63 77 87 73 9
336 271 270 251 357 46 102 33 246 267 256 199 216 206 195 194 186 187 188 186 183 187 178 175 175 175 175 156 117 82 68 58 72 122 120 118 115 92 99 96 87 73 67 57 38 42 78 112 17
332 98 247 256 106 156 79 234 266 223 232 227 219 209 202 196 195 195 193 191 188 193 193 186 179 177 174 157 151 164 171 169 183 158 129 84 84 98 96 89 86 89 80 61 39 66 89 100 117
240 340 280 67 108 101 31 92 269 153 230 242 228 212 215 207 188 188 201 203 190 183 196 195 181 180 174 174 174 165 163 149 121 109 116 107 99 95 97 96 83 77 78 89 99 92 90 89 133
262 74 23 37 60 46 234 139 273 191 212 225 233 227 213 189 201 188 193 188 197 187 190 194 180 187 178 182 185 177 169 154 141 145 137 126 115 96 92 88 86 96 112 146 151 154 140 145 135
94 76 330 358 13 214 30 76 238 239 223 217 209 218 217 180 195 170 179 186 191 188 191 192 186 193 192 189 182 170 166 163 169 154 144 142 136 120 118 112 92 118 165 160 184 156 166 175 165
191 158 157 214 188 256 27 238 257 249 279 276 210 209 208 175 186 183 184 188 191 195 196 191 192 186 166 173 165 149 154 159 161 145 146 146 131 136 131 109 106 124 180 178 197 205 206 202 210
148 154 176 106 356 49 242 290 311 324 336 81 165 164 201 188 180 184 175 187 187 191 195 191 188 178 159 159 152 156 154 161 157 145 142 146 148 145 153 146 159 165 188 182 190 209 227 202 210
142 163 78 15 149 244 280 277 240 316 303 137 160 214 226 177 162 174 184 187 190 195 189 179 187 181 172 160 157 159 165 159 153 147 153 161 161 157 160 180 152 168 189 182 177 194 210 193 226
106 206 56 117 132 173 211 262 216 228 293 294 282 203 218 204 185 184 187 194 187 180 179 179 174 164 170 169 167 165 160 148 149 154 158 159 164 163 168 171 161 183 199 180 179 181 195 187 201
174 190 138 125 214 171 161 269 243 237 272 275 267 253 210 210 201 194 188 171 176 184 181 187 181 178 180 174 163 159 156 157 164 167 170 170 171 172 167 171 171 187 198 213 196 201 190 193 194